Date String (YYYY-MM-DD hh:mm:ss) UTC,Instrument flags,Ambient pressure (hPa),Sample flow (lpm),Bypass flow (lpm),Sample temperature (°C),Ambient temperature (°C),ASC tube jacket temperature (°C),LED temperature (°C),Box temperature (°C),Sample RH (%),Span deviation,Mass concentration (μg/m³),Mass concentration (μg/m³),Mass concentration (μg/m³)
DateTimeUTC,F1_M11,P_M11,Q1_M11,Q2_M11,T1_M11,T2_M11,T3_M11,T4_M11,T5_M11,U1_M11,ZSPAN_M11,X0_M11,X2_M11,X1_M11
2022-04-24 06:00:00,,0821.4,5.00,0.00,22.0,21.0,00.0,31.1,23.7,12.7,0000.0,0001.57,0000.79,0000.54
2022-04-24 06:01:00,,0821.4,5.01,0.00,22.0,21.1,00.0,31.1,23.7,12.7,0000.0,0001.55,0000.79,0000.55
2022-04-24 06:02:00,,0821.3,4.99,0.00,22.0,21.1,00.0,31.1,23.7,12.7,0000.0,0001.49,0000.77,0000.55
2022-04-24 06:03:00,,0821.3,5.00,0.00,22.0,21.0,00.0,31.1,23.7,12.6,0000.0,0001.56,0000.80,0000.56
2022-04-24 06:04:00,,0821.4,4.99,0.00,22.0,21.0,00.0,31.1,23.7,12.6,0000.0,0001.72,0000.84,0000.57
2022-04-24 06:05:00,,0821.4,5.01,0.00,22.0,21.4,00.0,31.1,23.9,12.6,0000.0,0001.73,0000.84,0000.58
2022-04-24 06:06:00,,0821.5,4.99,0.00,22.2,22.3,00.0,31.2,24.1,12.5,0000.0,0001.70,0000.84,0000.60
2022-04-24 06:07:00,,0821.5,5.00,0.00,22.3,23.2,00.0,31.2,24.4,12.5,0000.0,0001.77,0000.87,0000.61
2022-04-24 06:08:00,,0821.5,5.00,0.00,22.5,23.2,00.0,31.3,24.6,12.5,0000.0,0001.59,0000.88,0000.61
2022-04-24 06:09:00,,0821.6,4.99,0.00,22.5,23.0,00.0,31.3,24.6,12.4,0000.0,0001.63,0000.91,0000.61
2022-04-24 06:10:00,,0821.6,5.01,0.00,22.5,22.7,00.0,31.3,24.5,12.3,0000.0,0001.71,0000.91,0000.61
2022-04-24 06:11:00,,0821.6,4.99,0.00,22.5,22.5,00.0,31.3,24.4,12.2,0000.0,0001.81,0000.90,0000.61
2022-04-24 06:12:00,,0821.7,5.01,0.00,22.5,22.3,00.0,31.3,24.3,12.2,0000.0,0001.91,0000.90,0000.61
2022-04-24 06:13:00,,0821.7,5.00,0.00,22.5,22.1,00.0,31.3,24.2,12.2,0000.0,0002.02,0000.89,0000.61
2022-04-24 06:14:00,,0821.6,5.00,0.00,22.5,22.0,00.0,31.4,24.2,12.2,0000.0,0001.96,0000.88,0000.61
2022-04-24 06:15:00,,0821.7,5.01,0.00,22.4,21.9,00.0,31.4,24.2,12.1,0000.0,0001.81,0000.85,0000.62
2022-04-24 06:16:00,,0821.7,5.01,0.00,22.4,21.8,00.0,31.4,24.2,12.2,0000.0,0001.73,0000.85,0000.62
2022-04-24 06:17:00,,0821.6,5.00,0.00,22.4,21.7,00.0,31.4,24.1,12.3,0000.0,0001.73,0000.84,0000.62
2022-04-24 06:18:00,,0821.7,5.00,0.00,22.4,21.6,00.0,31.4,24.1,12.4,0000.0,0001.71,0000.85,0000.63
2022-04-24 06:19:00,,0821.8,4.99,0.00,22.4,21.6,00.0,31.4,24.1,12.2,0000.0,0001.68,0000.84,0000.65
2022-04-24 06:20:00,,0821.9,5.00,0.00,22.4,21.5,00.0,31.4,24.1,12.3,0000.0,0001.63,0000.82,0000.65
2022-04-24 06:21:00,,0821.8,4.99,0.00,22.4,21.5,00.0,31.4,24.1,12.2,0000.0,0001.63,0000.84,0000.65
2022-04-24 06:22:00,,0821.8,5.00,0.00,22.4,21.5,00.0,31.4,24.1,12.2,0000.0,0001.48,0000.82,0000.65
2022-04-24 06:23:00,,0821.8,5.01,0.00,22.4,21.5,00.0,31.4,24.0,12.1,0000.0,0001.38,0000.82,0000.66
2022-04-24 06:24:00,,0821.8,5.01,0.00,22.4,21.4,00.0,31.4,24.0,12.1,0000.0,0001.32,0000.84,0000.66
2022-04-24 06:25:00,,0821.8,4.99,0.00,22.3,21.3,00.0,31.4,23.9,12.2,0000.0,0001.37,0000.85,0000.67
2022-04-24 06:26:00,,0821.8,5.00,0.00,22.3,21.3,00.0,31.3,23.9,12.2,0000.0,0001.54,0000.89,0000.67
2022-04-24 06:27:00,,0821.8,5.01,0.00,22.3,21.3,00.0,31.3,23.9,12.3,0000.0,0001.56,0000.90,0000.69
2022-04-24 06:28:00,,0821.8,4.99,0.00,22.3,21.3,00.0,31.3,23.9,12.4,0000.0,0001.57,0000.91,0000.69
2022-04-24 06:29:00,,0821.7,4.99,0.00,22.3,21.3,00.0,31.3,23.9,12.5,0000.0,0001.53,0000.90,0000.69
2022-04-24 06:30:00,,0821.8,5.01,0.00,22.2,21.2,00.0,31.3,24.0,12.5,0000.0,0001.60,0000.92,0000.68
2022-04-24 06:31:00,,0821.8,5.01,0.00,22.2,21.2,00.0,31.3,23.9,12.5,0000.0,0001.61,0000.92,0000.69
2022-04-24 06:32:00,,0821.7,5.00,0.00,22.2,21.2,00.0,31.3,23.8,12.4,0000.0,0001.55,0000.91,0000.70
2022-04-24 06:33:00,,0821.8,4.99,0.00,22.2,21.2,00.0,31.3,23.8,12.3,0000.0,0001.54,0000.92,0000.71
2022-04-24 06:34:00,,0821.8,5.00,0.00,22.2,21.1,00.0,31.2,23.7,12.2,0000.0,0001.55,0000.92,0000.71
2022-04-24 06:35:00,,0821.8,5.01,0.00,22.1,21.1,00.0,31.2,23.8,12.0,0000.0,0002.23,0000.92,0000.72
2022-04-24 06:36:00,,0821.8,5.00,0.00,22.1,21.1,00.0,31.2,23.8,11.9,0000.0,0002.68,0000.90,0000.71
2022-04-24 06:37:00,,0821.9,5.00,0.00,22.1,21.1,00.0,31.2,23.8,12.1,0000.0,0002.50,0000.86,0000.70
2022-04-24 06:38:00,,0821.8,5.01,0.00,22.1,21.1,00.0,31.2,23.8,12.1,0000.0,0002.97,0000.86,0000.69
2022-04-24 06:39:00,,0821.8,5.00,0.00,22.1,21.1,00.0,31.2,23.8,12.2,0000.0,0003.49,0000.86,0000.69
2022-04-24 06:40:00,,0821.9,4.99,0.00,22.1,21.1,00.0,31.2,23.7,12.2,0000.0,0003.47,0000.86,0000.69
2022-04-24 06:41:00,,0821.9,5.00,0.00,22.1,21.1,00.0,31.2,23.8,12.3,0000.0,0003.39,0000.83,0000.69
2022-04-24 06:42:00,,0821.8,5.00,0.00,22.1,21.1,00.0,31.2,23.8,12.3,0000.0,0003.36,0000.82,0000.70
2022-04-24 06:43:00,,0821.8,5.00,0.00,22.1,21.1,00.0,31.2,23.8,12.3,0000.0,0003.35,0000.81,0000.69
2022-04-24 06:44:00,,0821.8,5.00,0.00,22.1,21.1,00.0,31.2,23.7,12.3,0000.0,0003.40,0000.83,0000.70
2022-04-24 06:45:00,,0821.8,5.00,0.00,22.1,21.1,00.0,31.2,23.8,12.3,0000.0,0003.49,0000.85,0000.70
2022-04-24 06:46:00,,0821.8,5.00,0.00,22.1,21.1,00.0,31.2,23.8,12.2,0000.0,0003.02,0000.87,0000.69
2022-04-24 06:47:00,,0821.7,5.02,0.00,22.1,21.1,00.0,31.1,23.8,12.1,0000.0,0002.35,0000.90,0000.70
2022-04-24 06:48:00,,0821.7,5.01,0.00,22.1,21.1,00.0,31.1,23.9,12.0,0000.0,0002.38,0000.90,0000.70
2022-04-24 06:49:00,,0821.8,5.00,0.00,22.1,21.1,00.0,31.1,23.8,12.1,0000.0,0002.12,0000.92,0000.70
2022-04-24 06:50:00,,0821.8,5.00,0.00,22.1,21.1,00.0,31.1,23.8,12.2,0000.0,0001.44,0000.93,0000.70
2022-04-24 06:51:00,,0821.8,5.00,0.00,22.1,21.1,00.0,31.1,23.7,12.2,0000.0,0001.46,0000.94,0000.71
2022-04-24 06:52:00,,0821.8,4.99,0.00,22.1,21.1,00.0,31.1,23.7,12.3,0000.0,0001.48,0000.94,0000.71
2022-04-24 06:53:00,,0821.9,4.99,0.00,22.0,21.0,00.0,31.1,23.7,12.1,0000.0,0001.49,0000.95,0000.71
2022-04-24 06:54:00,,0821.9,5.01,0.00,22.0,21.1,00.0,31.1,23.7,12.1,0000.0,0001.51,0000.95,0000.71
2022-04-24 06:55:00,,0822.0,5.00,0.00,22.0,21.0,00.0,31.1,23.7,12.2,0000.0,0001.55,0000.96,0000.71
2022-04-24 06:56:00,,0821.9,5.01,0.00,22.0,20.9,00.0,31.1,23.6,12.1,0000.0,0001.46,0000.93,0000.72
2022-04-24 06:57:00,,0821.9,5.00,0.00,22.0,20.9,00.0,31.1,23.7,12.0,0000.0,0001.39,0000.90,0000.71
2022-04-24 06:58:00,,0821.9,5.00,0.00,22.0,21.0,00.0,31.1,23.7,12.0,0000.0,0001.35,0000.88,0000.71
2022-04-24 06:59:00,,0822.1,5.00,0.00,22.1,21.7,00.0,31.1,23.9,12.0,0000.0,0001.35,0000.88,0000.70
